Regional Weather Roundup
Issued by NWS Green Bay, WI

Home | Current Version | Previous Version | Text Only | Print | Product List | Glossary On
Versions: 1 2 3 4 5 6 7 8 9 10 11 12 13 14 15 16 17 18 19 20 21 22 23 24 25 26 27 28 29 30 31 32 33 34 35 36 37 38 39 40 41 42 43 44 45 46 47 48 49 50
083
ASUS43 KGRB 270911
RWRGRB

NORTH-CENTRAL AND NORTHEAST WISCONSIN REGIONAL WEATHER ROUNDUP
NATIONAL WEATHER SERVICE GREEN BAY WI
400 AM CDT MON MAR 27 2017

WIZ005-009-010>012-018-019-271000-
NORTH CENTRAL WISCONSIN

CITY           SKY/WX    TMP DP  RH WIND       PRES   REMARKS
IRONWOOD       FOG       32  32 100 NW7       29.91S VSB 1/4
MANITOWISH WTR CLOUDY    31  31 100 N6        29.88R
ARBOR VITAE    CLOUDY    34  33  96 NW5       29.87R
EAGLE RIVER    CLOUDY    32  32 100 NW7       29.86R
LAND O LAKES   CLOUDY    32  32 100 N8        29.88R
RHINELANDER    CLOUDY    34  33  96 N5        29.87R
PHILLIPS       CLOUDY    32  32 100 CALM      29.89R
ANTIGO         CLOUDY    34  34 100 NW6       29.86R
TOMAHAWK       CLOUDY    32  32  99 CALM      29.89R
MERRILL        CLOUDY    35  35 100 N5        29.88R
$$

WIZ013-073-271000-
NORTHEAST WISCONSIN

CITY           SKY/WX    TMP DP  RH WIND       PRES   REMARKS
IRON MOUNTAIN  CLOUDY    34  31  88 NW6       29.83S
MARINETTE        N/A    N/A N/A N/A MISG        N/A
OCONTO         CLOUDY    36  35  99 W5        29.88R
$$

WIZ017-030-035>037-045-271000-
CENTRAL WISCONSIN

CITY           SKY/WX    TMP DP  RH WIND       PRES   REMARKS
MEDFORD        CLOUDY    34  33  98 N5        29.88R
WAUSAU         CLOUDY    37  37 100 NW3       29.86S
MOSINEE        CLOUDY    36  36 100 W5        29.89R
MARSHFIELD     CLOUDY    38  37  97 NW5       29.87S FOG
WISC RAPIDS    CLOUDY    39  39 100 CALM      29.89S FOG
STEVENS POINT  CLOUDY    37  37 100 CALM      29.89R
WAUPACA        FOG       40  38  96 SW3       29.89S VSB 3/4
SHAWANO        CLOUDY    38  37  94 W3        29.88R
CLINTONVILLE   CLOUDY    36  36 100 CALM      29.88R FOG
WAUTOMA        CLOUDY    39  39 100 CALM      29.89S FOG
$$

WIZ038-039-048-051-271000-
FOX VALLEY

CITY           SKY/WX    TMP DP  RH WIND       PRES   REMARKS
NWS GREEN BAY  CLOUDY    38  38 100 W5        29.88R
APPLETON       CLOUDY    36  36 100 W6        29.87R
OSHKOSH        CLOUDY    38  37  97 W3        29.88R
FOND DU LAC    CLOUDY    39  36  89 NW3       29.88F
$$

WIZ022-050-052-271000-
EAST CENTRAL WISCONSIN

CITY           SKY/WX    TMP DP  RH WIND       PRES   REMARKS
EPHRAIM        FOG       34  34 100 N5        29.83F VSB 1/4
WASHINGTON ISL CLOUDY    34  33  97 N6        29.83F
STURGEON BAY   FOG       35  35 100 W5        29.86S VSB 1/2
MANITOWOC      CLOUDY    37  36  96 NW3       29.88S
SHEBOYGAN      CLOUDY    38  36  92 W5        29.88R
$$

LMZ563-521-522-541>543-271000-
LAKESHORE

STATION/POSITION TIME  TEMP    WIND        PRES    VSBY  WAVE
                       AIR SEA DIR/SP/G                  HT/PER
                 (UTC) (F)     (DEG/KT/KT) (MB)    (MI)  (FT/S)
SHEBOYGAN LKSHOR 0900   39     250/  3/  4 1012.6R
KEWAUNEE LKSHORE 0848   36     270/  2/  5 1011.2R
NORTHPORT PIER   0840   33     310/  4/  5 1010.5F
SISTER BAY LKSHO 0806   34        CALM       N/A
CHAMBERS ISLAND  0840   34     320/  4/  7 1010.5S
MENOMINEE LKSHOR 0848   36     310/  5/  5 1010.2R
$$




USA.gov is the U.S. government's official web portal to all federal, state and local government web resources and services.